Flag for U.S.A. Weather past 2 weeks in Reston, Virginia, U.S.A.

Now
80 °F

Scattered clouds.


Feels Like: 80 °F
Forecast: 62 / 86 °F
Wind: 14 mph from South

Location: Washington-Dulles International Airport

Current Time: May 25, 2015 at 7:48:28 PM

Latest Report: May 25, 2015 at 6:52 PM


Visibility: 10 mi

Pressure: 30.18 "Hg

Humidity: 45%

Dew point: 57 °F

Location of RestonLocation

Historic Weather in Reston — Graph

°F

Reston temperature yesterday

Maximum temperature yesterday: 81 °F (at 3:52 PM)
Minimum temperature yesterday: 49 °F (at 2:52 AM)
Average temperature yesterday: 67 °F

Past Weeks' High & Low Weather Summary

 TemperatureHumidityPressure
High88 °F (May 18, 2:52 PM)100% (May 11, 4:52 AM)30.47 "Hg (May 11, 4:52 AM)
Low43 °F (May 23, 4:52 AM)26% (May 23, 10:52 AM)29.83 "Hg (May 19, 6:52 PM)
Average67 °F63%30.14 "Hg
* Reported May 10 6:52 PM — May 25 6:52 PM, Reston, Weather by CustomWeather, © 2015

Note: Actual official high and low records may vary slightly from our data, if they occured in-between our weather recording intervals... More about our weather records

Advertising

Reston weather history for previous 24 hours

 ConditionsComfort  
Time TempWeatherWind HumidityBarometerVisibility
6:52 PM
Mon, May 25
80 °FScattered clouds.14 mph45%30.18 "Hg10 mi
5:52 PM81 °FBroken clouds.16 mph45%30.18 "Hg10 mi
4:52 PM83 °FSunny.12 mph44%30.19 "Hg10 mi
3:52 PM82 °FBroken clouds.16 mph46%30.19 "Hg10 mi
2:52 PM82 °FBroken clouds.13 mph48%30.20 "Hg10 mi
1:52 PM82 °FPartly sunny.17 mph46%30.21 "Hg10 mi
12:52 PM82 °FScattered clouds.16 mph46%30.22 "Hg10 mi
11:52 AM80 °FPassing clouds.16 mph49%30.25 "Hg10 mi
10:52 AM77 °FPassing clouds.12 mph56%30.26 "Hg10 mi
9:52 AM73 °FPassing clouds.7 mph62%30.27 "Hg10 mi
8:52 AM69 °FSunny.9 mph68%30.27 "Hg10 mi
7:52 AM65 °FPassing clouds.12 mph76%30.27 "Hg10 mi
6:52 AM63 °FPassing clouds.8 mph78%30.26 "Hg10 mi
5:52 AM62 °FPassing clouds.5 mph78%30.23 "Hg10 mi
4:52 AM63 °FClear.5 mph75%30.24 "Hg10 mi
3:52 AM63 °FClear.5 mph75%30.24 "Hg10 mi
2:52 AM64 °FClear.7 mph73%30.23 "Hg10 mi
1:52 AM65 °FClear.5 mph70%30.24 "Hg10 mi
12:52 AM67 °FClear.7 mph66%30.24 "Hg10 mi
11:52 PM
Sun, May 24
69 °FClear.6 mph61%30.25 "Hg10 mi
10:52 PM70 °FPassing clouds.7 mph59%30.25 "Hg10 mi
9:52 PM72 °FPassing clouds.7 mph57%30.25 "Hg10 mi
8:52 PM73 °FScattered clouds.6 mph51%30.24 "Hg10 mi
7:52 PM76 °FScattered clouds.3 mph48%30.24 "Hg10 mi
Weather by CustomWeather, © 2015

See weather overviewHow to use our weather pages